Location: Newark
(33.6333°S, 78.8500°W)
Time: 06:06:19
(UTC+00:00)

Tiros 1 - Pass Details

Date: 25 October 2019
Orbit: 630 x 664 km, 48.4° (Epoch: 18 November)

Event Time Altitude Azimuth Distance (km) Brightness Sun altitude
Rises 17:28:03 0° 276° (W) 2,958 10.7 67.6°
Reaches altitude 10° 17:30:42 10° 263° (W) 2,046 9.9 67.4°
Maximum altitude 17:34:41 27° 206° (SSW) 1,254 8.8 67.1°
Drops below altitude 10° 17:38:40 10° 147° (SSE) 2,040 9.6 66.8°
Sets 17:41:19 0° 135° (SE) 2,948 10.3 66.5°
